LHA296 LEPA-EDDM

Flight info

Callsign LHA296
Flight time 1h 44m
Altitude 40000
Route MEROS N853 LUMAS DCT UNANA DCT STP DCT RAPED DCT PIGOS DCT EKSID DCT NOSTA DCT NOPMU DCT TAGIP DCT GUNGO DCT IVKAL T102 NINUR T101 BETOS BETO1B
Aircraft A359/M-SDE1E2FGIJ1RWYZE3/S

Departure

Time 2026-05-07 16:58
Airport Palma de Mallorca Airport (LEPA)

Arrival

Time 2026-05-07 18:42
Airport Munich Airport (EDDM)
Time Latitude Longitude Altitude Speed Heading
2026-05-07 16:37 39.55058 2.73691 42 ft 0 kts 237°
2026-05-07 16:38 39.54840 2.73830 42 ft 0 kts 268°
2026-05-07 16:47 39.54840 2.73831 42 ft 4 kts 268°
2026-05-07 16:47 39.54842 2.73866 42 ft 4 kts 267°
2026-05-07 16:47 39.54843 2.73901 42 ft 4 kts 268°
2026-05-07 16:47 39.54843 2.73935 42 ft 4 kts 276°
2026-05-07 16:48 39.54836 2.73967 37 ft 4 kts 307°
2026-05-07 16:48 39.54817 2.73987 39 ft 4 kts 351°
2026-05-07 16:48 39.54810 2.73989 39 ft 4 kts 11°
2026-05-07 16:48 39.54811 2.73990 39 ft 0 kts 11°
2026-05-07 16:51 39.54813 2.73990 39 ft 2 kts
2026-05-07 16:51 39.54866 2.73977 42 ft 10 kts 338°
2026-05-07 16:51 39.54924 2.73970 42 ft 8 kts 25°
2026-05-07 16:51 39.54940 2.74028 42 ft 7 kts 109°
2026-05-07 16:52 39.54898 2.74069 42 ft 9 kts 148°
2026-05-07 16:52 39.54836 2.74114 42 ft 11 kts 160°
2026-05-07 16:52 39.54766 2.74076 42 ft 13 kts 235°
2026-05-07 16:52 39.54715 2.73971 42 ft 15 kts 239°
2026-05-07 16:53 39.54656 2.73843 42 ft 18 kts 241°
2026-05-07 16:53 39.54589 2.73695 42 ft 20 kts 238°
2026-05-07 16:53 39.54521 2.73556 42 ft 12 kts 238°
2026-05-07 16:53 39.54472 2.73452 42 ft 13 kts 240°
2026-05-07 16:54 39.54423 2.73341 42 ft 16 kts 240°
2026-05-07 16:54 39.54366 2.73220 42 ft 11 kts 238°
2026-05-07 16:54 39.54319 2.73128 42 ft 14 kts 236°
2026-05-07 16:54 39.54263 2.73013 42 ft 16 kts 238°
2026-05-07 16:55 39.54205 2.72905 41 ft 8 kts 214°
2026-05-07 16:55 39.54153 2.72914 42 ft 8 kts 147°
2026-05-07 16:55 39.54147 2.72922 42 ft 0 kts 138°
2026-05-07 16:56 39.54132 2.72946 42 ft 13 kts 124°
2026-05-07 16:57 39.54120 2.73161 43 ft 35 kts 67°
2026-05-07 16:57 39.54290 2.73519 40 ft 70 kts 59°
2026-05-07 16:57 39.54663 2.74301 44 ft 134 kts 58°
2026-05-07 16:57 39.55231 2.75471 476 ft 152 kts 56°
2026-05-07 16:58 39.55804 2.76563 1387 ft 142 kts 55°
2026-05-07 16:58 39.56338 2.77681 1964 ft 156 kts 62°
2026-05-07 16:58 39.56915 2.79017 2286 ft 183 kts 62°
2026-05-07 16:58 39.57588 2.80529 2770 ft 201 kts 61°
2026-05-07 16:59 39.58315 2.82121 3469 ft 206 kts 60°
2026-05-07 16:59 39.59051 2.83714 4288 ft 206 kts 60°
2026-05-07 16:59 39.59801 2.85332 5028 ft 212 kts 60°
2026-05-07 16:59 39.60561 2.86970 5750 ft 217 kts 60°
2026-05-07 17:00 39.61344 2.88654 6572 ft 218 kts 61°
2026-05-07 17:00 39.62132 2.90353 7350 ft 221 kts 61°
2026-05-07 17:00 39.62938 2.92135 7888 ft 240 kts 63°
2026-05-07 17:00 39.63786 2.94127 8334 ft 261 kts 63°
2026-05-07 17:01 39.64679 2.96233 9100 ft 271 kts 63°
2026-05-07 17:01 39.65602 2.98398 9915 ft 278 kts 63°
2026-05-07 17:01 39.66566 3.00649 10510 ft 294 kts 63°
2026-05-07 17:01 39.67600 3.03066 10928 ft 317 kts 63°
2026-05-07 17:02 39.68690 3.05607 11465 ft 333 kts 63°
2026-05-07 17:02 39.69837 3.08278 12226 ft 342 kts 63°
2026-05-07 17:02 39.71002 3.10997 13030 ft 348 kts 63°
2026-05-07 17:02 39.72188 3.13765 13807 ft 354 kts 63°
2026-05-07 17:03 39.73393 3.16579 14481 ft 360 kts 63°
2026-05-07 17:03 39.74622 3.19453 15140 ft 366 kts 63°
2026-05-07 17:03 39.75866 3.22366 15674 ft 370 kts 63°
2026-05-07 17:03 39.77139 3.25285 16015 ft 372 kts 60°
2026-05-07 17:04 39.78700 3.28002 16628 ft 378 kts 52°
2026-05-07 17:04 39.80425 3.30613 17360 ft 383 kts 51°
2026-05-07 17:04 39.82187 3.33242 18065 ft 388 kts 51°
2026-05-07 17:04 39.83957 3.35886 18667 ft 394 kts 51°
2026-05-07 17:05 39.85761 3.38589 19263 ft 399 kts 51°
2026-05-07 17:05 39.87695 3.41238 19862 ft 407 kts 43°
2026-05-07 17:05 39.89852 3.43662 20500 ft 412 kts 41°
2026-05-07 17:05 39.92090 3.46040 21125 ft 418 kts 40°
2026-05-07 17:06 39.94390 3.48399 21761 ft 423 kts 39°
2026-05-07 17:06 39.96740 3.50766 22369 ft 429 kts 39°
2026-05-07 17:06 39.99124 3.53154 22980 ft 434 kts 39°
2026-05-07 17:06 40.01534 3.55569 23574 ft 439 kts 39°
2026-05-07 17:07 40.03981 3.58012 24046 ft 445 kts 37°
2026-05-07 17:07 40.06495 3.60325 24524 ft 451 kts 36°
2026-05-07 17:07 40.09097 3.62660 25000 ft 456 kts 35°
2026-05-07 17:07 40.11748 3.65005 25482 ft 462 kts 34°
2026-05-07 17:08 40.14429 3.67360 25966 ft 467 kts 34°
2026-05-07 17:08 40.17148 3.69742 26428 ft 472 kts 34°
2026-05-07 17:08 40.19891 3.72148 26930 ft 477 kts 33°
2026-05-07 17:08 40.22651 3.74573 27496 ft 479 kts 33°
2026-05-07 17:09 40.25436 3.77025 27972 ft 484 kts 33°
2026-05-07 17:09 40.28245 3.79502 28417 ft 489 kts 33°
2026-05-07 17:09 40.31053 3.81981 28779 ft 495 kts 34°
2026-05-07 17:09 40.33931 3.84526 29143 ft 502 kts 33°
2026-05-07 17:10 40.36837 3.87101 29569 ft 506 kts 33°
2026-05-07 17:10 40.39767 3.89699 29994 ft 511 kts 33°
2026-05-07 17:10 40.42722 3.92323 30398 ft 514 kts 33°
2026-05-07 17:10 40.45700 3.94969 30802 ft 517 kts 33°
2026-05-07 17:11 40.48694 3.97633 31180 ft 520 kts 33°
2026-05-07 17:11 40.51699 4.00308 31545 ft 523 kts 34°
2026-05-07 17:11 40.54722 4.03003 31906 ft 526 kts 34°
2026-05-07 17:11 40.57760 4.05714 32259 ft 529 kts 34°
2026-05-07 17:12 40.60808 4.08437 32608 ft 532 kts 34°
2026-05-07 17:12 40.63877 4.11183 32929 ft 535 kts 34°
2026-05-07 17:12 40.66969 4.13952 33268 ft 538 kts 34°
2026-05-07 17:12 40.70070 4.16732 33571 ft 540 kts 34°
2026-05-07 17:13 40.73143 4.19490 33826 ft 543 kts 34°
2026-05-07 17:13 40.76270 4.22300 34096 ft 545 kts 34°
2026-05-07 17:13 40.79408 4.25122 34371 ft 546 kts 34°
2026-05-07 17:13 40.82551 4.27952 34757 ft 545 kts 34°
2026-05-07 17:14 40.85682 4.30776 35117 ft 545 kts 34°
2026-05-07 17:14 40.88811 4.33600 35444 ft 545 kts 34°
2026-05-07 17:14 40.91936 4.36425 35795 ft 544 kts 34°
2026-05-07 17:14 40.95063 4.39254 36138 ft 543 kts 34°
2026-05-07 17:15 40.98143 4.42045 36447 ft 542 kts 33°
2026-05-07 17:15 41.01298 4.44906 36778 ft 542 kts 33°
2026-05-07 17:15 41.04401 4.47723 37083 ft 542 kts 33°
2026-05-07 17:15 41.07463 4.50508 37459 ft 540 kts 33°
2026-05-07 17:16 41.10556 4.53323 37819 ft 539 kts 33°
2026-05-07 17:16 41.13641 4.56135 38120 ft 538 kts 33°
2026-05-07 17:16 41.16723 4.58946 38342 ft 538 kts 33°
2026-05-07 17:16 41.19813 4.61767 38538 ft 539 kts 33°
2026-05-07 17:17 41.22904 4.64593 38765 ft 539 kts 33°
2026-05-07 17:17 41.25995 4.67423 39025 ft 538 kts 33°
2026-05-07 17:17 41.29076 4.70247 39276 ft 536 kts 33°
2026-05-07 17:17 41.32142 4.73061 39491 ft 535 kts 33°
2026-05-07 17:18 41.35204 4.75875 39681 ft 535 kts 33°
2026-05-07 17:18 41.38264 4.78689 39888 ft 534 kts 33°
2026-05-07 17:18 41.44410 4.84349 39956 ft 539 kts 33°
2026-05-07 17:19 41.50540 4.90011 39954 ft 538 kts 33°
2026-05-07 17:19 41.56694 4.95708 39928 ft 538 kts 33°
2026-05-07 17:20 41.62860 5.01429 39948 ft 539 kts 33°
2026-05-07 17:20 41.69024 5.07162 39965 ft 539 kts 33°
2026-05-07 17:21 41.75184 5.12906 39962 ft 539 kts 33°
2026-05-07 17:21 41.81298 5.18620 39962 ft 539 kts 33°
2026-05-07 17:22 41.87444 5.24376 39971 ft 539 kts 33°
2026-05-07 17:22 41.93581 5.30140 39963 ft 538 kts 33°
2026-05-07 17:23 41.99719 5.35917 39956 ft 538 kts 33°
2026-05-07 17:23 42.05846 5.41698 39965 ft 538 kts 33°
2026-05-07 17:24 42.11987 5.47505 39964 ft 537 kts 33°
2026-05-07 17:24 42.18106 5.53307 39960 ft 537 kts 33°
2026-05-07 17:25 42.24180 5.59079 39961 ft 537 kts 33°
2026-05-07 17:25 42.30292 5.64901 39964 ft 537 kts 33°
2026-05-07 17:26 42.36401 5.70735 39960 ft 536 kts 33°
2026-05-07 17:26 42.42494 5.76568 39958 ft 537 kts 33°
2026-05-07 17:27 42.48552 5.82382 39964 ft 537 kts 33°
2026-05-07 17:27 42.54638 5.88236 39959 ft 536 kts 33°
2026-05-07 17:28 42.60717 5.94098 39959 ft 536 kts 33°
2026-05-07 17:28 42.66799 5.99977 39962 ft 536 kts 33°
2026-05-07 17:29 42.72878 6.05868 39959 ft 536 kts 33°
2026-05-07 17:29 42.78915 6.11732 39956 ft 536 kts 33°
2026-05-07 17:30 42.84989 6.17646 39963 ft 537 kts 33°
2026-05-07 17:30 42.90893 6.23901 39965 ft 537 kts 39°
2026-05-07 17:31 42.96537 6.30591 39963 ft 537 kts 39°
2026-05-07 17:31 43.02189 6.37274 39960 ft 537 kts 39°
2026-05-07 17:32 43.07882 6.43890 39969 ft 537 kts 38°
2026-05-07 17:32 43.12624 6.49368 39945 ft 536 kts 38°
2026-05-07 17:33 43.18340 6.55978 39947 ft 537 kts 38°
2026-05-07 17:33 43.23545 6.63322 39959 ft 538 kts 51°
2026-05-07 17:34 43.28044 6.71538 39961 ft 539 kts 53°
2026-05-07 17:34 43.32428 6.79894 39959 ft 539 kts 54°
2026-05-07 17:35 43.36769 6.88209 39960 ft 539 kts 54°
2026-05-07 17:35 43.41156 6.96580 39964 ft 540 kts 54°
2026-05-07 17:36 43.45548 7.04981 39971 ft 539 kts 54°
2026-05-07 17:36 43.49921 7.13367 39966 ft 539 kts 54°
2026-05-07 17:37 43.54265 7.21717 39968 ft 539 kts 54°
2026-05-07 17:37 43.58626 7.30124 39973 ft 539 kts 54°
2026-05-07 17:38 43.62984 7.38551 39975 ft 538 kts 54°
2026-05-07 17:38 43.67327 7.46978 39968 ft 538 kts 54°
2026-05-07 17:39 43.71681 7.55440 39992 ft 538 kts 54°
2026-05-07 17:39 43.75991 7.63841 39984 ft 539 kts 54°
2026-05-07 17:40 43.80357 7.72284 39986 ft 539 kts 51°
2026-05-07 17:40 43.85695 7.79496 39985 ft 535 kts 37°
2026-05-07 17:41 43.91531 7.85913 40001 ft 535 kts 35°
2026-05-07 17:41 43.97221 7.92580 39992 ft 536 kts 41°
2026-05-07 17:42 44.02635 7.99691 39988 ft 536 kts 42°
2026-05-07 17:42 44.07991 8.06897 39992 ft 537 kts 42°
2026-05-07 17:43 44.13312 8.14102 40022 ft 537 kts 42°
2026-05-07 17:43 44.18693 8.21373 39989 ft 534 kts 42°
2026-05-07 17:44 44.23959 8.28555 39992 ft 533 kts 43°
2026-05-07 17:44 44.29260 8.35758 39980 ft 528 kts 42°
2026-05-07 17:45 44.34530 8.42917 39986 ft 532 kts 42°
2026-05-07 17:45 44.39835 8.50176 39991 ft 534 kts 42°
2026-05-07 17:46 44.45147 8.57464 39990 ft 534 kts 42°
2026-05-07 17:46 44.50463 8.64773 39991 ft 534 kts 42°
2026-05-07 17:47 44.55733 8.72037 39976 ft 534 kts 42°
2026-05-07 17:47 44.61030 8.79356 39989 ft 535 kts 42°
2026-05-07 17:48 44.66327 8.86696 39995 ft 535 kts 43°
2026-05-07 17:48 44.71619 8.94048 39986 ft 534 kts 43°
2026-05-07 17:49 44.76895 9.01398 39978 ft 534 kts 43°
2026-05-07 17:49 44.82165 9.08759 39975 ft 534 kts 43°
2026-05-07 17:50 44.87434 9.16140 39965 ft 533 kts 43°
2026-05-07 17:50 44.92688 9.23517 39969 ft 533 kts 43°
2026-05-07 17:51 44.97936 9.30910 39962 ft 533 kts 43°
2026-05-07 17:51 45.03178 9.38315 39963 ft 532 kts 43°
2026-05-07 17:52 45.08375 9.45676 39955 ft 531 kts 43°
2026-05-07 17:52 45.13593 9.53085 39955 ft 531 kts 43°
2026-05-07 17:53 45.18806 9.60507 39966 ft 531 kts 43°
2026-05-07 17:53 45.24010 9.67939 39947 ft 530 kts 43°
2026-05-07 17:54 45.29201 9.75372 39969 ft 530 kts 43°
2026-05-07 17:54 45.34398 9.82832 39968 ft 530 kts 43°
2026-05-07 17:55 45.39552 9.90253 39949 ft 529 kts 43°
2026-05-07 17:55 45.44731 9.97732 39946 ft 529 kts 43°
2026-05-07 17:56 45.49899 10.05213 39944 ft 529 kts 43°
2026-05-07 17:56 45.55055 10.12699 39942 ft 529 kts 44°
2026-05-07 17:57 45.59330 10.18920 39947 ft 528 kts 44°
2026-05-07 17:57 45.65317 10.27660 39949 ft 529 kts 44°
2026-05-07 17:58 45.70462 10.35192 40000 ft 529 kts 44°
2026-05-07 17:58 45.74662 10.41357 40001 ft 529 kts 44°
2026-05-07 17:59 45.79794 10.48909 40011 ft 529 kts 44°
2026-05-07 17:59 45.84923 10.56475 40023 ft 529 kts 44°
2026-05-07 18:00 45.90015 10.64009 40033 ft 528 kts 44°
2026-05-07 18:00 45.95688 10.70585 40041 ft 522 kts 27°
2026-05-07 18:01 46.02001 10.75713 40027 ft 520 kts 25°
2026-05-07 18:01 46.08402 10.80621 40064 ft 521 kts 25°
2026-05-07 18:02 46.17997 10.87957 40069 ft 520 kts 25°
2026-05-07 18:03 46.24250 10.92792 40075 ft 520 kts 25°
2026-05-07 18:03 46.30587 10.97712 40075 ft 521 kts 25°
2026-05-07 18:04 46.36988 11.02647 40073 ft 519 kts 22°
2026-05-07 18:04 46.43800 11.05699 40060 ft 508 kts
2026-05-07 18:05 46.50795 11.05977 40039 ft 501 kts 354°
2026-05-07 18:05 46.57705 11.05467 40041 ft 500 kts 352°
2026-05-07 18:06 46.64602 11.04864 40053 ft 500 kts 352°
2026-05-07 18:06 46.71554 11.04312 40032 ft 500 kts 353°
2026-05-07 18:07 46.78503 11.03797 40031 ft 499 kts 353°
2026-05-07 18:07 46.85412 11.02944 40042 ft 497 kts 348°
2026-05-07 18:08 46.92239 11.01533 39719 ft 495 kts 350°
2026-05-07 18:08 46.95695 11.01339 39501 ft 500 kts 359°
2026-05-07 18:08 46.99173 11.01619 39280 ft 501 kts
2026-05-07 18:08 47.02648 11.02037 39063 ft 501 kts
2026-05-07 18:09 47.06113 11.02537 38704 ft 498 kts
2026-05-07 18:09 47.09573 11.03078 38039 ft 497 kts
2026-05-07 18:09 47.13008 11.03626 37353 ft 495 kts
2026-05-07 18:09 47.16397 11.04166 36701 ft 494 kts
2026-05-07 18:10 47.19302 11.04623 36116 ft 493 kts
2026-05-07 18:10 47.22706 11.05155 35427 ft 492 kts
2026-05-07 18:10 47.26067 11.05684 34749 ft 492 kts
2026-05-07 18:10 47.29483 11.06205 33956 ft 495 kts
2026-05-07 18:11 47.32919 11.06721 33002 ft 496 kts
2026-05-07 18:11 47.35240 11.07070 32413 ft 496 kts
2026-05-07 18:11 47.39771 11.07757 31407 ft 493 kts
2026-05-07 18:11 47.43180 11.08279 30724 ft 489 kts
2026-05-07 18:12 47.46549 11.08798 30124 ft 484 kts
2026-05-07 18:12 47.49888 11.09315 29439 ft 479 kts
2026-05-07 18:12 47.53182 11.09827 28769 ft 474 kts
2026-05-07 18:12 47.56397 11.10847 28080 ft 475 kts 16°
2026-05-07 18:13 47.59407 11.12837 27469 ft 472 kts 24°
2026-05-07 18:13 47.62299 11.15111 26862 ft 468 kts 26°
2026-05-07 18:13 47.65077 11.17466 26225 ft 465 kts 28°
2026-05-07 18:13 47.67853 11.19903 25627 ft 461 kts 28°
2026-05-07 18:14 47.70590 11.22335 25075 ft 456 kts 29°
2026-05-07 18:14 47.73352 11.24611 24486 ft 450 kts 22°
2026-05-07 18:14 47.76212 11.26477 23894 ft 446 kts 20°
2026-05-07 18:14 47.79078 11.28183 23233 ft 442 kts 19°
2026-05-07 18:15 47.81940 11.29796 22548 ft 438 kts 18°
2026-05-07 18:15 47.84784 11.31360 21902 ft 434 kts 18°
2026-05-07 18:15 47.87628 11.32783 21243 ft 428 kts 11°
2026-05-07 18:15 47.90515 11.33561 20564 ft 412 kts
2026-05-07 18:16 47.93157 11.35044 19763 ft 402 kts 25°
2026-05-07 18:16 47.95500 11.37268 18806 ft 396 kts 33°
2026-05-07 18:16 47.97643 11.39776 17934 ft 398 kts 37°
2026-05-07 18:16 47.99750 11.42497 17434 ft 393 kts 39°
2026-05-07 18:17 48.01758 11.45176 16880 ft 390 kts 39°
2026-05-07 18:17 48.03772 11.47862 16302 ft 387 kts 39°
2026-05-07 18:17 48.05783 11.50515 15730 ft 384 kts 39°
2026-05-07 18:17 48.07790 11.53130 15188 ft 381 kts 38°
2026-05-07 18:18 48.09791 11.55710 14660 ft 378 kts 38°
2026-05-07 18:18 48.11108 11.57402 14272 ft 374 kts 38°
2026-05-07 18:18 48.13073 11.59919 13383 ft 370 kts 38°
2026-05-07 18:18 48.15045 11.62443 12463 ft 367 kts 38°
2026-05-07 18:19 48.16952 11.64887 11658 ft 365 kts 38°
2026-05-07 18:19 48.18894 11.67378 11089 ft 361 kts 38°
2026-05-07 18:19 48.20753 11.69769 10787 ft 351 kts 38°
2026-05-07 18:19 48.22572 11.72123 10567 ft 339 kts 38°
2026-05-07 18:20 48.24153 11.74686 10351 ft 330 kts 52°
2026-05-07 18:20 48.25224 11.77668 10123 ft 322 kts 70°
2026-05-07 18:20 48.25720 11.80886 9889 ft 313 kts 81°
2026-05-07 18:20 48.26020 11.84093 9501 ft 308 kts 83°
2026-05-07 18:21 48.26278 11.87252 8898 ft 302 kts 83°
2026-05-07 18:21 48.26523 11.90364 8192 ft 297 kts 83°
2026-05-07 18:21 48.26755 11.93384 7773 ft 284 kts 83°
2026-05-07 18:21 48.26972 11.96239 7469 ft 267 kts 83°
2026-05-07 18:22 48.27176 11.98971 7045 ft 259 kts 83°
2026-05-07 18:22 48.27308 12.00739 6721 ft 256 kts 83°
2026-05-07 18:22 48.27565 12.04245 6144 ft 253 kts 83°
2026-05-07 18:22 48.27754 12.06860 5852 ft 250 kts 83°
2026-05-07 18:23 48.27942 12.09427 5631 ft 243 kts 83°
2026-05-07 18:23 48.28127 12.11903 5494 ft 234 kts 83°
2026-05-07 18:23 48.28306 12.14298 5307 ft 228 kts 83°
2026-05-07 18:23 48.28478 12.16642 5059 ft 225 kts 83°
2026-05-07 18:24 48.28889 12.18868 5014 ft 221 kts 58°
2026-05-07 18:24 48.29983 12.20415 4996 ft 216 kts 24°
2026-05-07 18:24 48.31415 12.20859 4994 ft 213 kts 358°
2026-05-07 18:24 48.32892 12.20804 4994 ft 212 kts 355°
2026-05-07 18:25 48.34334 12.20423 4993 ft 211 kts 334°
2026-05-07 18:25 48.35424 12.19026 5002 ft 206 kts 302°
2026-05-07 18:25 48.36121 12.17145 4997 ft 206 kts 295°
2026-05-07 18:25 48.36703 12.15171 4976 ft 207 kts 288°
2026-05-07 18:26 48.36926 12.13042 5001 ft 207 kts 271°
2026-05-07 18:26 48.36837 12.10891 4993 ft 204 kts 264°
2026-05-07 18:26 48.36668 12.08849 4992 ft 190 kts 263°
2026-05-07 18:26 48.36511 12.06899 4968 ft 187 kts 264°
2026-05-07 18:27 48.36357 12.04998 4794 ft 180 kts 264°
2026-05-07 18:27 48.36214 12.03147 4533 ft 177 kts 264°
2026-05-07 18:27 48.36076 12.01321 4269 ft 174 kts 264°
2026-05-07 18:27 48.35940 11.99538 4030 ft 169 kts 264°
2026-05-07 18:28 48.35808 11.97823 3799 ft 165 kts 265°
2026-05-07 18:28 48.35676 11.96109 3576 ft 161 kts 265°
2026-05-07 18:28 48.35553 11.94491 3377 ft 156 kts 265°
2026-05-07 18:28 48.35429 11.92876 3164 ft 155 kts 265°
2026-05-07 18:29 48.35307 11.91275 2949 ft 152 kts 265°
2026-05-07 18:29 48.35188 11.89732 2756 ft 145 kts 265°
2026-05-07 18:29 48.35073 11.88222 2539 ft 145 kts 265°
2026-05-07 18:29 48.34958 11.86727 2345 ft 141 kts 266°
2026-05-07 18:30 48.34847 11.85276 2145 ft 139 kts 265°
2026-05-07 18:30 48.34737 11.83835 1975 ft 138 kts 264°
2026-05-07 18:30 48.34614 11.82294 2609 ft 158 kts 264°
2026-05-07 18:30 48.34470 11.80500 3406 ft 194 kts 264°
2026-05-07 18:31 48.34297 11.78334 3780 ft 219 kts 263°
2026-05-07 18:31 48.34013 11.75956 4033 ft 244 kts 251°
2026-05-07 18:31 48.33019 11.73835 4532 ft 258 kts 220°
2026-05-07 18:31 48.31396 11.72647 4912 ft 264 kts 192°
2026-05-07 18:32 48.29569 11.72727 4999 ft 266 kts 165°
2026-05-07 18:32 48.27828 11.73701 4993 ft 269 kts 157°
2026-05-07 18:32 48.26146 11.74970 4992 ft 271 kts 147°
2026-05-07 18:32 48.24893 11.77049 4998 ft 272 kts 117°
2026-05-07 18:33 48.24424 11.79771 5001 ft 271 kts 91°
2026-05-07 18:33 48.24489 11.82571 4993 ft 273 kts 84°
2026-05-07 18:33 48.24654 11.85457 4990 ft 274 kts 84°
2026-05-07 18:33 48.24824 11.88268 4995 ft 274 kts 84°
2026-05-07 18:34 48.24999 11.91150 4990 ft 274 kts 84°
2026-05-07 18:34 48.25171 11.93995 4968 ft 274 kts 84°
2026-05-07 18:34 48.25344 11.96857 4595 ft 275 kts 84°
2026-05-07 18:34 48.25508 11.99628 4404 ft 264 kts 84°
2026-05-07 18:35 48.25663 12.02315 4262 ft 252 kts 84°
2026-05-07 18:35 48.25809 12.04889 4093 ft 242 kts 84°
2026-05-07 18:35 48.25948 12.07368 4011 ft 236 kts 84°
2026-05-07 18:35 48.26109 12.09834 3997 ft 238 kts 79°
2026-05-07 18:36 48.26774 12.12068 3999 ft 235 kts 47°
2026-05-07 18:36 48.28095 12.13408 3995 ft 227 kts 14°
2026-05-07 18:36 48.29591 12.13662 4002 ft 210 kts 356°
2026-05-07 18:36 48.31032 12.13577 4021 ft 206 kts 355°
2026-05-07 18:37 48.32464 12.13423 4006 ft 207 kts 352°
2026-05-07 18:37 48.33776 12.12611 3996 ft 205 kts 319°
2026-05-07 18:37 48.34683 12.10974 3998 ft 204 kts 302°
2026-05-07 18:37 48.35325 12.09103 3996 ft 205 kts 295°
2026-05-07 18:38 48.35920 12.07155 3996 ft 205 kts 294°
2026-05-07 18:38 48.36320 12.05100 3998 ft 207 kts 275°
2026-05-07 18:38 48.36261 12.02955 3998 ft 206 kts 263°
2026-05-07 18:38 48.36049 12.00852 3990 ft 195 kts 263°
2026-05-07 18:39 48.35887 11.98888 3946 ft 187 kts 264°
2026-05-07 18:39 48.35734 11.96841 3703 ft 203 kts 264°
2026-05-07 18:39 48.35577 11.94769 3413 ft 196 kts 264°
2026-05-07 18:39 48.35424 11.92802 3157 ft 184 kts 264°
2026-05-07 18:40 48.35280 11.90947 2911 ft 172 kts 265°
2026-05-07 18:40 48.35146 11.89209 2691 ft 162 kts 265°
2026-05-07 18:40 48.35021 11.87575 2455 ft 152 kts 265°
2026-05-07 18:40 48.34905 11.86056 2250 ft 141 kts 265°
2026-05-07 18:41 48.34791 11.84610 2038 ft 140 kts 265°
2026-05-07 18:41 48.34679 11.83127 1794 ft 142 kts 263°
2026-05-07 18:41 48.34561 11.81695 1641 ft 137 kts 268°
2026-05-07 18:41 48.34456 11.80251 1514 ft 141 kts 265°
2026-05-07 18:42 48.34357 11.78889 1485 ft 115 kts 263°
2026-05-07 18:42 48.34275 11.77851 1497 ft 89 kts 264°
2026-05-07 18:42 48.34275 11.77216 1498 ft 33 kts 292°
2026-05-07 18:42 48.34323 11.77030 1500 ft 19 kts 292°
2026-05-07 18:43 48.34359 11.76903 1500 ft 2 kts 293°
2026-05-07 18:43 48.34361 11.76897 1500 ft 0 kts 293°
2026-05-07 18:44 48.34362 11.76895 1500 ft 2 kts 293°
2026-05-07 18:44 48.34380 11.76832 1500 ft 10 kts 293°
2026-05-07 18:44 48.34425 11.76740 1501 ft 12 kts 321°
2026-05-07 18:44 48.34510 11.76696 1501 ft 14 kts 352°
2026-05-07 18:45 48.34577 11.76778 1500 ft 14 kts 77°
2026-05-07 18:45 48.34589 11.76937 1500 ft 17 kts 83°
2026-05-07 18:45 48.34603 11.77120 1499 ft 19 kts 83°
2026-05-07 18:45 48.34615 11.77280 1499 ft 14 kts 83°
2026-05-07 18:46 48.34627 11.77437 1499 ft 17 kts 83°
2026-05-07 18:46 48.34641 11.77622 1498 ft 18 kts 83°
2026-05-07 18:46 48.34655 11.77798 1498 ft 13 kts 83°
2026-05-07 18:46 48.34703 11.77890 1497 ft 12 kts 10°
2026-05-07 18:47 48.34754 11.77885 1498 ft 0 kts 355°
2026-05-07 18:48 48.34755 11.77885 1498 ft 1 kts 355°
2026-05-07 18:48 48.34796 11.77880 1498 ft 8 kts 354°
2026-05-07 18:48 48.34863 11.77869 1498 ft 11 kts 354°
2026-05-07 18:49 48.34948 11.77853 1498 ft 13 kts 353°
2026-05-07 18:49 48.35047 11.77836 1498 ft 15 kts 354°
2026-05-07 18:49 48.35161 11.77818 1499 ft 17 kts 354°
2026-05-07 18:49 48.35245 11.77803 1500 ft 7 kts 353°
2026-05-07 18:50 48.35257 11.77801 1500 ft 0 kts 353°
2026-05-07 18:51 48.35268 11.77799 1500 ft 12 kts 353°
2026-05-07 18:52 48.35318 11.77744 1500 ft 8 kts 283°
2026-05-07 18:52 48.35319 11.77705 1500 ft 0 kts 269°